Total_Precipitation_Accumulation
1.44 1.46 1.55 1.65 1.82 1.91 1.90 1.95 1.97 1.98 2.10 2.23 2.33 2.41 2.43 2.46 2.61 2.71 2.55 2.70 2.70 2.81 2.74 2.70 2.65 2.87 2.93 2.77 2.93 3.06 3.29 3.52 3.24 2.78 2.88 2.89 2.78 2.55 2.51 2.44 2.32 2.28 2.07
1.46 1.53 1.67 1.76 1.86 1.93 1.85 1.93 2.14 2.17 2.20 2.28 2.38 2.48 2.39 2.48 2.64 2.58 2.56 2.62 2.68 2.67 2.77 2.96 2.89 3.06 3.08 3.03 3.22 3.22 3.30 3.55 3.45 3.13 3.00 3.03 2.90 2.74 2.65 2.41 2.07 1.98 1.98
1.81 1.78 1.81 1.80 1.87 1.99 2.05 2.08 2.19 2.29 2.34 2.32 2.30 2.38 2.53 2.70 2.72 2.56 2.55 2.54 2.46 2.37 2.55 2.82 3.12 3.58 3.43 3.26 3.15 3.08 3.11 3.19 3.41 3.14 2.89 3.10 2.95 2.83 2.77 2.40 2.12 2.07 1.75
1.71 1.73 1.85 1.91 2.05 2.19 2.27 2.32 2.36 2.34 2.34 2.41 2.48 2.50 2.58 2.62 2.58 2.57 2.61 2.61 2.56 2.42 2.43 2.55 2.72 3.03 3.18 3.32 3.12 3.02 3.10 3.19 3.31 3.22 3.13 3.34 3.39 3.21 2.99 2.59 2.40 2.25 1.99
2.01 2.20 2.35 2.35 2.38 2.50 2.57 2.54 2.57 2.53 2.44 2.65 2.69 2.66 2.65 2.60 2.42 2.61 2.74 2.62 2.70 2.60 2.53 2.46 2.30 2.43 2.62 2.82 2.68 3.00 3.19 3.14 3.21 3.26 3.35 3.71 3.71 3.49 2.95 2.68 2.58 2.45 2.18
2.34 2.69 2.80 2.82 2.83 2.87 2.90 2.88 2.88 2.83 2.96 3.01 2.87 2.81 2.74 2.48 2.65 2.70 2.72 2.74 2.83 2.74 2.63 2.57 2.38 2.23 2.21 2.34 2.42 2.64 2.91 2.94 3.02 3.18 3.27 3.44 3.49 3.42 3.18 2.89 2.65 2.50 2.21
2.35 2.57 2.66 2.75 2.84 3.02 3.04 3.04 3.02 3.03 3.07 3.08 3.13 3.09 2.96 3.02 3.03 2.68 2.62 2.61 2.65 2.62 2.77 2.84 2.40 2.01 2.22 2.18 2.27 2.29 2.22 2.38 2.58 2.79 2.95 3.00 3.31 3.44 3.46 3.02 2.84 2.64 2.29
2.55 2.71 2.81 2.78 2.82 2.89 2.89 2.81 2.82 2.96 2.99 2.94 2.88 2.82 2.77 2.75 2.83 2.56 2.50 2.37 2.38 2.39 2.43 2.45 2.40 2.24 2.17 2.19 2.16 2.02 1.86 1.86 2.00 2.07 2.17 2.44 2.81 3.31 3.62 3.36 3.23 3.03 2.66
2.70 2.79 2.92 3.01 3.09 3.00 2.91 2.90 2.92 3.00 2.89 2.84 2.79 2.78 2.68 2.64 2.70 2.50 2.46 2.27 2.22 2.13 2.11 2.12 2.13 2.00 2.08 2.05 1.95 1.89 1.82 1.71 1.73 1.82 1.79 1.92 2.24 2.66 3.18 3.40 3.15 2.80 2.47
2.69 2.80 2.93 3.03 3.20 3.30 3.24 3.25 3.18 3.11 3.05 3.01 2.95 2.93 2.85 2.77 2.89 2.63 2.49 2.27 2.23 2.22 2.31 2.27 2.22 2.05 2.04 1.93 1.76 1.77 1.63 1.52 1.64 1.64 1.57 1.59 1.70 2.04 2.56 2.74 2.87 2.71 2.40
2.42 2.46 2.65 2.89 3.12 3.27 3.36 3.35 3.34 3.26 3.18 2.98 2.81 2.75 2.69 2.69 2.82 2.62 2.46 2.22 2.21 2.31 2.39 2.43 2.36 2.26 1.96 1.81 1.67 1.58 1.57 1.71 1.78 1.77 1.73 1.73 1.89 2.08 2.24 2.48 2.73 2.79 2.55
2.41 2.54 2.69 2.91 3.01 3.04 3.15 3.21 3.34 3.30 3.19 3.09 2.84 2.63 2.52 2.36 2.31 2.31 2.16 2.05 2.10 2.20 2.28 2.40 2.43 2.35 2.08 1.94 1.78 1.64 1.70 1.67 1.67 1.78 1.76 1.73 1.77 1.88 2.07 2.37 2.64 2.71 2.58
2.64 2.73 2.81 2.90 3.00 3.07 3.14 3.14 3.14 3.10 2.93 2.82 2.67 2.56 2.47 2.39 2.32 2.15 1.90 1.82 1.86 1.88 2.01 2.37 2.48 2.34 2.12 1.85 1.76 1.76 1.70 1.56 1.58 1.61 1.53 1.48 1.55 1.70 1.90 2.20 2.54 2.74 2.66
2.67 2.59 2.58 2.59 2.66 2.74 2.85 2.88 2.84 2.76 2.69 2.61 2.51 2.43 2.33 2.28 2.20 2.11 1.95 1.79 1.76 1.75 1.76 1.98 2.10 2.06 1.87 1.72 1.64 1.56 1.48 1.49 1.47 1.45 1.45 1.53 1.63 1.68 1.74 1.88 2.27 2.61 2.71
2.64 2.66 2.70 2.69 2.71 2.76 2.83 2.92 2.80 2.64 2.61 2.49 2.34 2.37 2.34 2.19 2.16 2.17 2.00 1.82 1.75 1.83 1.84 1.83 1.90 1.99 1.97 1.89 1.87 1.80 1.72 1.65 1.55 1.49 1.58 1.61 1.73 1.83 1.87 1.99 2.24 2.47 2.45
2.68 2.61 2.64 2.71 2.80 2.89 2.94 2.96 3.02 2.75 2.65 2.50 2.38 2.31 2.22 2.09 2.00 1.89 1.83 1.76 1.67 1.66 1.57 1.58 1.78 1.96 2.08 2.09 2.13 2.09 1.99 1.91 1.84 1.84 1.86 1.84 1.82 1.89 1.95 2.01 2.22 2.41 2.42
2.70 2.70 2.71 2.69 2.73 2.79 2.74 2.67 2.71 2.64 2.45 2.37 2.27 2.13 2.00 1.89 1.73 1.64 1.63 1.64 1.58 1.51 1.37 1.48 1.64 1.78 1.96 2.12 2.18 2.14 2.06 2.08 2.16 2.16 2.11 2.08 2.07 2.10 2.16 2.15 2.17 2.31 2.40
2.63 2.71 2.76 2.74 2.65 2.61 2.54 2.49 2.45 2.43 2.29 2.14 2.05 1.99 1.95 1.86 1.80 1.79 1.79 1.72 1.59 1.52 1.42 1.59 1.76 1.89 2.02 2.20 2.26 2.23 2.23 2.23 2.28 2.26 2.27 2.26 2.25 2.24 2.24 2.21 2.15 2.13 2.25
2.40 2.36 2.33 2.36 2.34 2.33 2.25 2.16 2.09 2.03 2.08 2.12 2.01 1.90 1.95 1.84 1.86 1.97 1.83 1.63 1.65 1.69 1.71 1.78 1.86 1.96 2.11 2.27 2.41 2.47 2.49 2.44 2.42 2.39 2.34 2.36 2.40 2.40 2.27 2.20 2.25 2.28 2.24
1.94 2.07 1.97 1.88 1.89 1.92 1.92 1.92 1.87 1.87 1.96 2.08 2.03 1.82 1.77 1.70 1.74 1.88 1.72 1.69 1.78 1.79 1.76 1.82 1.86 1.89 2.05 2.20 2.29 2.36 2.39 2.36 2.36 2.41 2.37 2.36 2.38 2.39 2.32 2.31 2.38 2.38 2.25
1.58 1.60 1.65 1.52 1.57 1.71 1.78 1.79 1.80 1.87 1.93 1.95 1.85 1.70 1.63 1.51 1.70 1.81 1.73 1.68 1.66 1.65 1.66 1.66 1.71 1.76 1.88 2.04 2.12 2.20 2.28 2.27 2.23 2.26 2.35 2.37 2.31 2.33 2.32 2.33 2.35 2.41 2.34
1.22 1.22 1.26 1.26 1.38 1.49 1.53 1.59 1.68 1.74 1.78 1.78 1.66 1.49 1.47 1.44 1.63 1.71 1.66 1.62 1.61 1.61 1.64 1.67 1.67 1.66 1.74 1.89 1.96 2.05 2.19 2.17 2.10 2.10 2.22 2.37 2.33 2.28 2.34 2.40 2.41 2.43 2.42
1.09 1.15 1.20 1.23 1.32 1.36 1.35 1.42 1.57 1.65 1.66 1.65 1.55 1.46 1.42 1.45 1.52 1.60 1.62 1.57 1.54 1.53 1.52 1.58 1.64 1.65 1.71 1.83 1.87 1.94 2.09 2.08 2.04 2.07 2.16 2.23 2.24 2.23 2.27 2.30 2.33 2.40 2.39
1.11 1.14 1.17 1.14 1.14 1.19 1.25 1.31 1.36 1.38 1.41 1.43 1.42 1.37 1.34 1.36 1.40 1.41 1.42 1.41 1.47 1.50 1.51 1.60 1.64 1.70 1.78 1.80 1.74 1.70 1.78 1.83 1.81 1.83 1.91 2.05 2.15 2.20 2.22 2.20 2.17 2.20 2.28
1.07 1.13 1.17 1.24 1.26 1.27 1.29 1.31 1.31 1.27 1.27 1.29 1.31 1.35 1.38 1.36 1.37 1.40 1.43 1.45 1.45 1.49 1.49 1.51 1.58 1.65 1.68 1.59 1.52 1.53 1.66 1.61 1.56 1.57 1.67 1.87 1.98 2.08 2.13 2.12 2.12 2.17 2.25
1.16 1.23 1.31 1.38 1.41 1.42 1.44 1.45 1.42 1.37 1.37 1.34 1.38 1.42 1.50 1.55 1.55 1.56 1.54 1.53 1.53 1.54 1.52 1.54 1.55 1.50 1.50 1.46 1.39 1.42 1.40 1.29 1.29 1.40 1.46 1.62 1.82 1.88 2.02 2.13 2.12 2.14 2.16